Regional Weather Roundup
Issued by NWS

Home | Current Version | Previous Version | Text Only | Print | Product List | Glossary Off
Versions: 1 2 3 4 5 6 7 8 9 10 11 12 13 14 15 16 17 18 19 20 21 22 23 24 25 26 27 28 29 30 31 32 33 34 35 36 37 38 39 40 41 42 43 44 45 46 47 48 49 50

000
ASUS43 KOAX 260002
RWRNE

WEATHER ROUNDUP FOR NEBRASKA
NATIONAL WEATHER SERVICE OMAHA NE
700 PM CDT THU MAY 25 2017

NOTES: SATELLITE DATA IS BEING USED TO AUGMENT CLOUD COVER ABOVE
       12000 FEET.
       "FAIR" INDICATES FEW OR NO CLOUDS BELOW 12,000 FEET WITH NO
       SIGNIFICANT WEATHER AND/OR OBSTRUCTIONS TO VISIBILITY.

  * THESE STATIONS DO NOT REPORT WEATHER SUCH AS RAIN...SNOW OR FOG.

NEZ001>004-019>022-054>056-260100-
NEBRASKA PANHANDLE

CITY           SKY/WX    TMP DP  RH WIND       PRES   REMARKS
SCOTTSBLUFF    PTSUNNY   69  43  38 N12       29.64R
6HR MIN TEMP:  63; 6HR MAX TEMP:  72; 6HR PCP: TRACE;

ALLIANCE       CLOUDY    64  50  60 E3        29.62R
6HR MIN TEMP:  57; 6HR MAX TEMP:  71; 6HR PCP:  0.01;

CHADRON        PTSUNNY   69  39  33 NW10      29.62R
6HR MIN TEMP:  65; 6HR MAX TEMP:  71;

GORDON         CLOUDY    69  47  44 NW7       29.62R
6HR MIN TEMP:  64; 6HR MAX TEMP:  72;

SIDNEY         CLOUDY    65  47  52 N20G25    29.65R
6HR MIN TEMP:  62; 6HR MAX TEMP:  71; 6HR PCP: TRACE;

$$

NEZ057>060-069>072-079>082-260100-
SOUTHWEST NEBRASKA

CITY           SKY/WX    TMP DP  RH WIND       PRES   REMARKS
NORTH PLATTE   CLOUDY    65  57  75 NW8       29.57R
6HR MIN TEMP:  63; 6HR MAX TEMP:  75; 6HR PCP: TRACE;

IMPERIAL       LGT RAIN  60  52  74 SW12      29.63R
6HR MIN TEMP:  60; 6HR MAX TEMP:  80; 6HR PCP:  0.13;

LEXINGTON      CLOUDY    72  56  57 NW8       29.59S
MCCOOK         LGT RAIN  69  56  62 N15       29.59R
6HR MIN TEMP:  69; 6HR MAX TEMP:  81; 6HR PCP: TRACE;

OGALLALA       CLOUDY    62  56  81 W7        29.65R
$$

NEZ005>010-023>029-035>040-094-260100-
NORTH CENTRAL NEBRASKA

CITY           SKY/WX    TMP DP  RH WIND       PRES   REMARKS
VALENTINE      CLOUDY    71  42  35 E6        29.59R
6HR MIN TEMP:  66; 6HR MAX TEMP:  74;

AINSWORTH      PTSUNNY   67  52  57 N5        29.59R
BROKEN BOW     CLOUDY    71  54  54 SW8       29.61R
6HR MIN TEMP:  63; 6HR MAX TEMP:  73;

O`NEILL        SUNNY     71  54  55 CALM      29.58R
ORD            PTSUNNY   70  54  56 W6        29.56R
6HR MIN TEMP:  63; 6HR MAX TEMP:  75;

THEDFORD       CLOUDY    69  53  56 NE5       29.63R
$$

NEZ041-046>049-061>064-073>077-083>087-260100-
SOUTH CENTRAL NEBRASKA

CITY           SKY/WX    TMP DP  RH WIND       PRES   REMARKS
GRAND ISLAND   CLOUDY    73  55  53 S7        29.56R
6HR MIN TEMP:  70; 6HR MAX TEMP:  76;

AURORA         PTSUNNY   75  51  43 SW8       29.56R
HASTINGS       CLOUDY    75  54  47 S5        29.56R
6HR MIN TEMP:  68; 6HR MAX TEMP:  76;

HEBRON         SUNNY     77  56  48 S5        29.54R
HOLDREGE       CLOUDY    74  51  44 NW5       29.57R
KEARNEY *      CLOUDY    75  52  43 NW12      29.58R
YORK           PTSUNNY   73  54  49 SE7       29.55R
$$

NEZ011>018-030>034-042>045-260100-
NORTHEAST NEBRASKA

CITY           SKY/WX    TMP DP  RH WIND       PRES   REMARKS
NORFOLK        CLOUDY    75  51  43 S9        29.54R
6HR MIN TEMP:  67; 6HR MAX TEMP:  76; 6HR PCP: TRACE;

ALBION         MOSUNNY   73  51  44 SW10      29.57R
BLAIR          PTSUNNY   74  52  46 S14       29.56R
FREMONT        MOSUNNY   76  52  42 S14       29.55S
TEKAMAH        CLOUDY    74  53  48 S12       29.55R
6HR MIN TEMP:  70; 6HR MAX TEMP:  76; 6HR PCP: TRACE;

WAYNE          MOSUNNY   76  52  42 S14       29.55S
$$

NEZ050>053-065>068-078-088>093-260100-
SOUTHEAST NEBRASKA

CITY           SKY/WX    TMP DP  RH WIND       PRES   REMARKS
LINCOLN        CLOUDY    77  54  44 S9        29.55R
6HR MIN TEMP:  75; 6HR MAX TEMP:  79; 6HR PCP: TRACE;

OMAHA EPPLEY   PTSUNNY   76  52  43 S14       29.55R
6HR MIN TEMP:  71; 6HR MAX TEMP:  77; 6HR PCP: TRACE;

BEATRICE       SUNNY     76  55  47 SE10      29.53S
FALLS CITY     SUNNY     75  54  47 SE16      29.55R
6HR MIN TEMP:  71; 6HR MAX TEMP:  77;

NEBRASKA CITY  SUNNY     74  47  37 S12       29.55S
PLATTSMOUTH    MOSUNNY   77  52  42 SE14      29.56R
$$

NEZ044-045-051>053-067-260100-
OMAHA AREA

CITY           SKY/WX    TMP DP  RH WIND       PRES   REMARKS
OMAHA EPPLEY   PTSUNNY   76  52  43 S14       29.55R
6HR MIN TEMP:  71; 6HR MAX TEMP:  77; 6HR PCP: TRACE;

BLAIR          PTSUNNY   74  52  46 S14       29.56R
FREMONT        MOSUNNY   76  52  42 S14       29.55S
MILLARD        MOSUNNY   77  56  48 SE13G20   29.55R
OFFUTT AFB     MOSUNNY   74  53  47 SE10      29.55R
PLATTSMOUTH    MOSUNNY   77  52  42 SE14      29.56R
WAHOO          FAIR      76  51  41 S12       29.55R
$$




USA.gov is the U.S. government's official web portal to all federal, state and local government web resources and services.